Klamath Falls, OR

10:16 PM PST on February 20, 2018 (GMT -0800)
Klamath Falls International

Weather History for KLMT - February, 2012

Change the Weather History Date:

Saturday, February 18, 2012

  Actual Average Record
Temperature  
Mean Temperature 31 °F 35 °F  
Max Temperature 42 °F 46 °F 65 °F (2015)
Min Temperature 19 °F 24 °F 2 °F (1990)
Degree Days  
Heating Degree Days 34 30  
Month to date heating degree days 522 570  
Since 1 July heating degree days 4307 4550  
Cooling Degree Days 0 0  
Month to date cooling degree days 0 0  
Year to date cooling degree days 0 0  
Moisture  
Dew Point 22 °F    
Average Humidity 66    
Maximum Humidity 84    
Minimum Humidity 44    
Precipitation  
Precipitation T in 0.07 in 0.56 in (1986)
Month to date precipitation 0.32 1.24  
Year to date precipitation 1.68 3.09  
Sea Level Pressure  
Sea Level Pressure 30.13 in    
Wind  
Wind Speed 12 mph (WNW)    
Max Wind Speed 25 mph    
Max Gust Speed 30 mph    
Visibility 9 miles    
Events Snow    
T = Trace of Precipitation, MM = Missing Value Source: NWS Daily Summary

Daily Weather History Graph

Daily Weather History Graph

Search for Another Location

Airport or City:

Trip Planner

Search our weather history database for the weather conditions in past years. The results will help you decide how hot, cold, wet, or windy it might be!

Date:

Astronomy

Feb. 18, 2012 Rise Set
Actual Time 6:59 AM PST 5:42 PM PST
Civil Twilight 6:30 AM PST 6:11 PM PST
Nautical Twilight 5:58 AM PST 6:44 PM PST
Astronomical Twilight 5:25 AM PST 7:16 PM PST
Moon 4:45 AM PST (2/18) 2:43 PM PST (2/18)
Length of Visible Light 11h 40m
Length of Day
10h 43m
Waning Crescent, 10% of the Moon is Illuminated
Feb 18
Waning Crescent
Feb 21
New
Feb 29
First Quarter
Mar 8
Full
Mar 14
Last Quarter

Hourly Weather History & Observations

Time (PST) Temp. Windchill Dew Point Humidity Pressure Visibility Wind Dir Wind Speed Gust Speed Precip Events Conditions
12:53 AM 41.0 °F 33.1 °F 32.0 °F 70% 30.06 in 10.0 mi West 15.0 mph 20.7 mph N/A   Mostly Cloudy
1:53 AM 37.9 °F 28.5 °F 30.0 °F 73% 30.07 in 10.0 mi West 17.3 mph - N/A   Mostly Cloudy
2:53 AM 36.0 °F 26.0 °F 28.0 °F 73% 30.06 in 10.0 mi West 17.3 mph - N/A   Clear
3:53 AM 33.1 °F 20.9 °F 23.0 °F 66% 30.08 in 10.0 mi West 21.9 mph - N/A   Clear
4:53 AM 32.0 °F 19.8 °F 24.1 °F 73% 30.09 in 10.0 mi WNW 20.7 mph - N/A   Clear
5:53 AM 32.0 °F 20.8 °F 23.0 °F 69% 30.11 in 10.0 mi WNW 17.3 mph - N/A   Clear
6:01 AM 32.0 °F 19.8 °F 23.0 °F 69% 30.10 in 7.0 mi WNW 20.7 mph - N/A   Mostly Cloudy
6:53 AM 32.0 °F 20.8 °F 23.0 °F 69% 30.13 in 7.0 mi West 17.3 mph - N/A   Mostly Cloudy
7:53 AM 30.9 °F 22.8 °F 21.0 °F 67% 30.15 in 10.0 mi West 9.2 mph - N/A   Scattered Clouds
8:53 AM 34.0 °F 24.2 °F 21.9 °F 61% 30.16 in 10.0 mi West 15.0 mph - N/A   Mostly Cloudy
9:53 AM 34.0 °F 26.0 °F 21.9 °F 61% 30.15 in 10.0 mi West 10.4 mph - 0.00 in Snow Light Snow
10:53 AM 34.0 °F 25.0 °F 21.9 °F 61% 30.15 in 4.0 mi NW 12.7 mph - 0.00 in Snow Light Snow
11:11 AM 33.8 °F 25.8 °F 24.8 °F 70% 30.14 in 7.0 mi North 10.4 mph - 0.00 in Snow Light Snow
11:53 AM 35.1 °F 27.4 °F 21.9 °F 59% 30.15 in 7.0 mi North 10.4 mph - 0.00 in Snow Light Snow
12:53 PM 36.0 °F 25.6 °F 21.0 °F 55% 30.13 in 7.0 mi NNW 18.4 mph - 0.00 in Snow Light Snow
1:33 PM 35.6 °F 25.2 °F 21.2 °F 56% 30.11 in 7.0 mi NW 18.4 mph - 0.00 in   Mostly Cloudy
1:53 PM 36.0 °F 29.0 °F 19.0 °F 50% 30.13 in 7.0 mi NNW 9.2 mph - 0.00 in   Mostly Cloudy
2:53 PM 37.0 °F 29.3 °F 18.0 °F 46% 30.11 in 10.0 mi NNW 11.5 mph 17.3 mph N/A   Mostly Cloudy
3:53 PM 35.6 °F 26.2 °F 19.4 °F 52% 30.13 in 10.0 mi NNW 15.0 mph - N/A   Mostly Cloudy
4:53 PM 33.1 °F 23.0 °F 21.9 °F 64% 30.14 in 10.0 mi NNW 15.0 mph - N/A   Mostly Cloudy
5:53 PM 30.9 °F 22.2 °F 18.0 °F 59% 30.16 in 10.0 mi NNW 10.4 mph - N/A   Mostly Cloudy
6:53 PM 28.0 °F 20.8 °F 18.0 °F 66% 30.17 in 10.0 mi NW 6.9 mph - N/A   Mostly Cloudy
7:53 PM 24.1 °F 19.7 °F 18.0 °F 77% 30.18 in 10.0 mi WSW 3.5 mph - N/A   Mostly Cloudy
8:53 PM 24.1 °F 16.0 °F 18.0 °F 77% 30.18 in 10.0 mi West 6.9 mph - N/A   Partly Cloudy
9:53 PM 23.0 °F 13.9 °F 18.0 °F 81% 30.18 in 10.0 mi WNW 8.1 mph - N/A   Clear
10:53 PM 21.9 °F 13.4 °F 18.0 °F 85% 30.18 in 10.0 mi West 6.9 mph - N/A   Clear
11:53 PM 21.0 °F - 17.1 °F 85% 30.17 in 10.0 mi Calm Calm - N/A   Clear